owner,sensor,date,latitude,longitude,vertical_datum,wind_speed,wind_to_direction,wind_speed_of_gust,qcFlag 
DISL,ioos:station:DISL:MBLA:1,2013-09-01T00:00:00Z,30.4367,-88.0117,14.2,3.01,227.7,-9999.0,'1111122,1111122,1111122' 
DISL,ioos:station:DISL:MBLA:1,2013-09-01T00:30:00Z,30.4367,-88.0117,14.2,2.99,224.6,-9999.0,'1111122,1111122,1111122' 
DISL,ioos:station:DISL:MBLA:1,2013-09-01T01:00:00Z,30.4367,-88.0117,14.2,4.25,249.2,-9999.0,'1111122,1111122,1111122' 
DISL,ioos:station:DISL:MBLA:1,2013-09-01T01:30:00Z,30.4367,-88.0117,14.2,4.32,254.4,-9999.0,'1111122,1111122,1111122' 
DISL,ioos:station:DISL:MBLA:1,2013-09-01T02:00:00Z,30.4367,-88.0117,14.2,4.38,247.6,-9999.0,'1111122,1111122,1111122' 
DISL,ioos:station:DISL:MBLA:1,2013-09-01T02:30:00Z,30.4367,-88.0117,14.2,3.46,281.5,-9999.0,'1111122,1111122,1111122' 
DISL,ioos:station:DISL:MBLA:1,2013-09-01T03:00:00Z,30.4367,-88.0117,14.2,2.85,295.4,-9999.0,'1111122,1111122,1111122' 
DISL,ioos:station:DISL:MBLA:1,2013-09-01T03:30:00Z,30.4367,-88.0117,14.2,1.54,269.8,-9999.0,'1111122,1111122,1111122' 
DISL,ioos:station:DISL:MBLA:1,2013-09-01T04:00:00Z,30.4367,-88.0117,14.2,0.0,0.0,-9999.0,'1114422,1114422,1111122' 
DISL,ioos:station:DISL:MBLA:1,2013-09-01T04:30:00Z,30.4367,-88.0117,14.2,1.27,210.9,-9999.0,'1111122,1111122,1111122' 
DISL,ioos:station:DISL:MBLA:1,2013-09-01T05:00:00Z,30.4367,-88.0117,14.2,1.55,161.9,-9999.0,'1111122,1111122,1111122' 
DISL,ioos:station:DISL:MBLA:1,2013-09-01T05:30:00Z,30.4367,-88.0117,14.2,2.66,203.4,-9999.0,'1111122,1111122,1111122' 
DISL,ioos:station:DISL:MBLA:1,2013-09-01T06:00:00Z,30.4367,-88.0117,14.2,5.64,222.6,-9999.0,'1111122,1111122,1111122' 
DISL,ioos:station:DISL:MBLA:1,2013-09-01T06:30:00Z,30.4367,-88.0117,14.2,6.53,224.2,-9999.0,'1111122,1111122,1111122' 
DISL,ioos:station:DISL:MBLA:1,2013-09-01T07:00:00Z,30.4367,-88.0117,14.2,5.48,227.9,-9999.0,'1111122,1111122,1111122' 
DISL,ioos:station:DISL:MBLA:1,2013-09-01T07:30:00Z,30.4367,-88.0117,14.2,5.07,235.6,-9999.0,'1111122,1111122,1111122' 
DISL,ioos:station:DISL:MBLA:1,2013-09-01T08:00:00Z,30.4367,-88.0117,14.2,4.37,244.5,-9999.0,'1111122,1111122,1111122' 
DISL,ioos:station:DISL:MBLA:1,2013-09-01T08:30:00Z,30.4367,-88.0117,14.2,4.03,247.3,-9999.0,'1111122,1111122,1111122' 
DISL,ioos:station:DISL:MBLA:1,2013-09-01T09:00:00Z,30.4367,-88.0117,14.2,3.95,260.4,-9999.0,'1111122,1111122,1111122' 
DISL,ioos:station:DISL:MBLA:1,2013-09-01T09:30:00Z,30.4367,-88.0117,14.2,5.79,271.4,-9999.0,'1111122,1111122,1111122' 
DISL,ioos:station:DISL:MBLA:1,2013-09-01T10:00:00Z,30.4367,-88.0117,14.2,6.23,274.8,-9999.0,'1111122,1111122,1111122' 
DISL,ioos:station:DISL:MBLA:1,2013-09-01T10:30:00Z,30.4367,-88.0117,14.2,5.44,286.9,-9999.0,'1111122,1111122,1111122' 
DISL,ioos:station:DISL:MBLA:1,2013-09-01T11:00:00Z,30.4367,-88.0117,14.2,5.57,282.7,-9999.0,'1111122,1111122,1111122' 
DISL,ioos:station:DISL:MBLA:1,2013-09-01T11:30:00Z,30.4367,-88.0117,14.2,5.49,284.7,-9999.0,'1111122,1111122,1111122' 
DISL,ioos:station:DISL:MBLA:1,2013-09-01T12:00:00Z,30.4367,-88.0117,14.2,5.47,279.8,-9999.0,'1111122,1111122,1111122' 
DISL,ioos:station:DISL:MBLA:1,2013-09-01T12:30:00Z,30.4367,-88.0117,14.2,4.83,274.6,-9999.0,'1111122,1111122,1111122' 
DISL,ioos:station:DISL:MBLA:1,2013-09-01T13:00:00Z,30.4367,-88.0117,14.2,4.74,274.2,-9999.0,'1111122,1111122,1111122' 
DISL,ioos:station:DISL:MBLA:1,2013-09-01T13:30:00Z,30.4367,-88.0117,14.2,4.45,275.8,-9999.0,'1111122,1111122,1111122' 
DISL,ioos:station:DISL:MBLA:1,2013-09-01T14:00:00Z,30.4367,-88.0117,14.2,5.1,283.6,-9999.0,'1111122,1111122,1111122' 
DISL,ioos:station:DISL:MBLA:1,2013-09-01T14:30:00Z,30.4367,-88.0117,14.2,4.14,284.6,-9999.0,'1111122,1111122,1111122' 
DISL,ioos:station:DISL:MBLA:1,2013-09-01T15:00:00Z,30.4367,-88.0117,14.2,2.61,280.2,-9999.0,'1111122,1111122,1111122' 
DISL,ioos:station:DISL:MBLA:1,2013-09-01T15:30:00Z,30.4367,-88.0117,14.2,1.86,275.1,-9999.0,'1111122,1111122,1111122' 
DISL,ioos:station:DISL:MBLA:1,2013-09-01T16:00:00Z,30.4367,-88.0117,14.2,1.43,218.1,-9999.0,'1111122,1111122,1111122' 
DISL,ioos:station:DISL:MBLA:1,2013-09-01T16:30:00Z,30.4367,-88.0117,14.2,1.73,128.1,-9999.0,'1111122,1111122,1111122' 
DISL,ioos:station:DISL:MBLA:1,2013-09-01T17:00:00Z,30.4367,-88.0117,14.2,2.84,142.7,-9999.0,'1111122,1111122,1111122' 
DISL,ioos:station:DISL:MBLA:1,2013-09-01T17:30:00Z,30.4367,-88.0117,14.2,7.05,211.2,-9999.0,'1111122,1111122,1111122' 
DISL,ioos:station:DISL:MBLA:1,2013-09-01T18:00:00Z,30.4367,-88.0117,14.2,5.75,217.8,-9999.0,'1111122,1111122,1111122' 
DISL,ioos:station:DISL:MBLA:1,2013-09-01T18:30:00Z,30.4367,-88.0117,14.2,6.31,235.2,-9999.0,'1111122,1111122,1111122' 
DISL,ioos:station:DISL:MBLA:1,2013-09-01T19:00:00Z,30.4367,-88.0117,14.2,6.05,235.4,-9999.0,'1111122,1111122,1111122' 
DISL,ioos:station:DISL:MBLA:1,2013-09-01T19:30:00Z,30.4367,-88.0117,14.2,5.01,239.3,-9999.0,'1111122,1111122,1111122' 
DISL,ioos:station:DISL:MBLA:1,2013-09-01T20:00:00Z,30.4367,-88.0117,14.2,3.04,290.7,-9999.0,'1111122,1111122,1111122' 
DISL,ioos:station:DISL:MBLA:1,2013-09-01T20:30:00Z,30.4367,-88.0117,14.2,3.75,267.5,-9999.0,'1111122,1111122,1111122' 
DISL,ioos:station:DISL:MBLA:1,2013-09-01T21:00:00Z,30.4367,-88.0117,14.2,4.52,248.7,-9999.0,'1111122,1111122,1111122' 
DISL,ioos:station:DISL:MBLA:1,2013-09-01T21:30:00Z,30.4367,-88.0117,14.2,4.19,306.2,-9999.0,'1111122,1111122,1111122' 
DISL,ioos:station:DISL:MBLA:1,2013-09-01T22:00:00Z,30.4367,-88.0117,14.2,2.1,265.7,-9999.0,'1111122,1111122,1111122' 
DISL,ioos:station:DISL:MBLA:1,2013-09-01T22:30:00Z,30.4367,-88.0117,14.2,0.41,341.4,-9999.0,'1111122,1111122,1111122' 
DISL,ioos:station:DISL:MBLA:1,2013-09-01T23:00:00Z,30.4367,-88.0117,14.2,1.17,286.0,-9999.0,'1111122,1111122,1111122' 
DISL,ioos:station:DISL:MBLA:1,2013-09-01T23:30:00Z,30.4367,-88.0117,14.2,4.2,4.1,-9999.0,'1111122,1111122,1111122' 
DISL,ioos:station:DISL:MBLA:1,2013-09-02T00:00:00Z,30.4367,-88.0117,14.2,0.0,0.0,-9999.0,'1114422,1114422,1111122' 
DISL,ioos:station:DISL:MBLA:1,2013-09-02T00:30:00Z,30.4367,-88.0117,14.2,1.72,77.62,-9999.0,'1111122,1111122,1111122' 
DISL,ioos:station:DISL:MBLA:1,2013-09-02T01:00:00Z,30.4367,-88.0117,14.2,3.07,216.2,-9999.0,'1111122,1111122,1111122' 
DISL,ioos:station:DISL:MBLA:1,2013-09-02T01:30:00Z,30.4367,-88.0117,14.2,2.27,224.9,-9999.0,'1111122,1111122,1111122' 
DISL,ioos:station:DISL:MBLA:1,2013-09-02T02:00:00Z,30.4367,-88.0117,14.2,4.14,229.1,-9999.0,'1111122,1111122,1111122' 
DISL,ioos:station:DISL:MBLA:1,2013-09-02T02:30:00Z,30.4367,-88.0117,14.2,3.16,222.7,-9999.0,'1111122,1111122,1111122' 
DISL,ioos:station:DISL:MBLA:1,2013-09-02T03:00:00Z,30.4367,-88.0117,14.2,3.7,225.7,-9999.0,'1111122,1111122,1111122' 
DISL,ioos:station:DISL:MBLA:1,2013-09-02T03:30:00Z,30.4367,-88.0117,14.2,4.38,239.2,-9999.0,'1111122,1111122,1111122' 
DISL,ioos:station:DISL:MBLA:1,2013-09-02T04:00:00Z,30.4367,-88.0117,14.2,4.59,251.0,-9999.0,'1111122,1111122,1111122' 
DISL,ioos:station:DISL:MBLA:1,2013-09-02T04:30:00Z,30.4367,-88.0117,14.2,4.45,223.6,-9999.0,'1111122,1111122,1111122' 
DISL,ioos:station:DISL:MBLA:1,2013-09-02T05:00:00Z,30.4367,-88.0117,14.2,4.77,210.8,-9999.0,'1111122,1111122,1111122' 
DISL,ioos:station:DISL:MBLA:1,2013-09-02T05:30:00Z,30.4367,-88.0117,14.2,6.63,191.2,-9999.0,'1111122,1111122,1111122' 
DISL,ioos:station:DISL:MBLA:1,2013-09-02T06:00:00Z,30.4367,-88.0117,14.2,7.57,201.7,-9999.0,'1111122,1111122,1111122' 
DISL,ioos:station:DISL:MBLA:1,2013-09-02T06:30:00Z,30.4367,-88.0117,14.2,8.05,206.0,-9999.0,'1111122,1111122,1111122' 
DISL,ioos:station:DISL:MBLA:1,2013-09-02T07:00:00Z,30.4367,-88.0117,14.2,7.62,205.2,-9999.0,'1111122,1111122,1111122' 
DISL,ioos:station:DISL:MBLA:1,2013-09-02T07:30:00Z,30.4367,-88.0117,14.2,7.74,205.8,-9999.0,'1111122,1111122,1111122' 
DISL,ioos:station:DISL:MBLA:1,2013-09-02T08:00:00Z,30.4367,-88.0117,14.2,7.83,204.9,-9999.0,'1111122,1111122,1111122' 
DISL,ioos:station:DISL:MBLA:1,2013-09-02T08:30:00Z,30.4367,-88.0117,14.2,6.72,210.5,-9999.0,'1111122,1111122,1111122' 
DISL,ioos:station:DISL:MBLA:1,2013-09-02T09:00:00Z,30.4367,-88.0117,14.2,6.0,226.7,-9999.0,'1111122,1111122,1111122' 
DISL,ioos:station:DISL:MBLA:1,2013-09-02T09:30:00Z,30.4367,-88.0117,14.2,5.55,231.8,-9999.0,'1111122,1111122,1111122' 
DISL,ioos:station:DISL:MBLA:1,2013-09-02T10:00:00Z,30.4367,-88.0117,14.2,5.13,237.4,-9999.0,'1111122,1111122,1111122' 
DISL,ioos:station:DISL:MBLA:1,2013-09-02T10:30:00Z,30.4367,-88.0117,14.2,4.75,248.6,-9999.0,'1111122,1111122,1111122' 
DISL,ioos:station:DISL:MBLA:1,2013-09-02T11:00:00Z,30.4367,-88.0117,14.2,3.95,254.5,-9999.0,'1111122,1111122,1111122' 
DISL,ioos:station:DISL:MBLA:1,2013-09-02T11:30:00Z,30.4367,-88.0117,14.2,3.58,261.4,-9999.0,'1111122,1111122,1111122' 
DISL,ioos:station:DISL:MBLA:1,2013-09-02T12:00:00Z,30.4367,-88.0117,14.2,4.26,262.0,-9999.0,'1111122,1111122,1111122' 
DISL,ioos:station:DISL:MBLA:1,2013-09-02T12:30:00Z,30.4367,-88.0117,14.2,5.82,265.7,-9999.0,'1111122,1111122,1111122' 
DISL,ioos:station:DISL:MBLA:1,2013-09-02T13:00:00Z,30.4367,-88.0117,14.2,5.22,271.9,-9999.0,'1111122,1111122,1111122' 
DISL,ioos:station:DISL:MBLA:1,2013-09-02T13:30:00Z,30.4367,-88.0117,14.2,5.25,285.5,-9999.0,'1111122,1111122,1111122' 
DISL,ioos:station:DISL:MBLA:1,2013-09-02T14:00:00Z,30.4367,-88.0117,14.2,4.69,293.4,-9999.0,'1111122,1111122,1111122' 
DISL,ioos:station:DISL:MBLA:1,2013-09-02T14:30:00Z,30.4367,-88.0117,14.2,4.76,301.2,-9999.0,'1111122,1111122,1111122' 
DISL,ioos:station:DISL:MBLA:1,2013-09-02T15:00:00Z,30.4367,-88.0117,14.2,4.34,288.7,-9999.0,'1111122,1111122,1111122' 
DISL,ioos:station:DISL:MBLA:1,2013-09-02T15:30:00Z,30.4367,-88.0117,14.2,1.82,250.3,-9999.0,'1111122,1111122,1111122' 
DISL,ioos:station:DISL:MBLA:1,2013-09-02T16:00:00Z,30.4367,-88.0117,14.2,1.1,214.0,-9999.0,'1111122,1111122,1111122' 
DISL,ioos:station:DISL:MBLA:1,2013-09-02T16:30:00Z,30.4367,-88.0117,14.2,4.74,142.6,-9999.0,'1111122,1111122,1111122' 
DISL,ioos:station:DISL:MBLA:1,2013-09-02T17:00:00Z,30.4367,-88.0117,14.2,4.67,159.8,-9999.0,'1111122,1111122,1111122' 
DISL,ioos:station:DISL:MBLA:1,2013-09-02T17:30:00Z,30.4367,-88.0117,14.2,4.38,155.3,-9999.0,'1111122,1111122,1111122' 
DISL,ioos:station:DISL:MBLA:1,2013-09-02T18:00:00Z,30.4367,-88.0117,14.2,5.41,159.3,-9999.0,'1111122,1111122,1111122' 
DISL,ioos:station:DISL:MBLA:1,2013-09-02T18:30:00Z,30.4367,-88.0117,14.2,6.56,205.9,-9999.0,'1111122,1111122,1111122' 
DISL,ioos:station:DISL:MBLA:1,2013-09-02T19:00:00Z,30.4367,-88.0117,14.2,5.42,209.4,-9999.0,'1111122,1111122,1111122' 
DISL,ioos:station:DISL:MBLA:1,2013-09-02T19:30:00Z,30.4367,-88.0117,14.2,7.1,317.2,-9999.0,'1111122,1111122,1111122' 
DISL,ioos:station:DISL:MBLA:1,2013-09-02T20:00:00Z,30.4367,-88.0117,14.2,5.92,324.5,-9999.0,'1111122,1111122,1111122' 
DISL,ioos:station:DISL:MBLA:1,2013-09-02T20:30:00Z,30.4367,-88.0117,14.2,2.38,252.4,-9999.0,'1111122,1111122,1111122' 
DISL,ioos:station:DISL:MBLA:1,2013-09-02T21:00:00Z,30.4367,-88.0117,14.2,2.55,209.6,-9999.0,'1111122,1111122,1111122' 
DISL,ioos:station:DISL:MBLA:1,2013-09-02T21:30:00Z,30.4367,-88.0117,14.2,2.34,173.0,-9999.0,'1111122,1111122,1111122' 
DISL,ioos:station:DISL:MBLA:1,2013-09-02T22:00:00Z,30.4367,-88.0117,14.2,5.95,201.7,-9999.0,'1111122,1111122,1111122' 
DISL,ioos:station:DISL:MBLA:1,2013-09-02T22:30:00Z,30.4367,-88.0117,14.2,6.54,192.0,-9999.0,'1111122,1111122,1111122' 
DISL,ioos:station:DISL:MBLA:1,2013-09-02T23:00:00Z,30.4367,-88.0117,14.2,6.74,190.4,-9999.0,'1111122,1111122,1111122' 
DISL,ioos:station:DISL:MBLA:1,2013-09-02T23:30:00Z,30.4367,-88.0117,14.2,6.47,202.0,-9999.0,'1111122,1111122,1111122' 
DISL,ioos:station:DISL:MBLA:1,2013-09-03T00:00:00Z,30.4367,-88.0117,14.2,6.16,181.2,-9999.0,'1111122,1111122,1111122' 
DISL,ioos:station:DISL:MBLA:1,2013-09-03T00:30:00Z,30.4367,-88.0117,14.2,5.86,174.0,-9999.0,'1111122,1111122,1111122' 
DISL,ioos:station:DISL:MBLA:1,2013-09-03T01:00:00Z,30.4367,-88.0117,14.2,6.54,188.1,-9999.0,'1111122,1111122,1111122' 
DISL,ioos:station:DISL:MBLA:1,2013-09-03T01:30:00Z,30.4367,-88.0117,14.2,5.78,184.5,-9999.0,'1111122,1111122,1111122' 
DISL,ioos:station:DISL:MBLA:1,2013-09-03T02:00:00Z,30.4367,-88.0117,14.2,6.07,193.2,-9999.0,'1111122,1111122,1111122' 
DISL,ioos:station:DISL:MBLA:1,2013-09-03T02:30:00Z,30.4367,-88.0117,14.2,6.13,205.3,-9999.0,'1111122,1111122,1111122' 
DISL,ioos:station:DISL:MBLA:1,2013-09-03T03:00:00Z,30.4367,-88.0117,14.2,5.58,201.3,-9999.0,'1111122,1111122,1111122' 
DISL,ioos:station:DISL:MBLA:1,2013-09-03T03:30:00Z,30.4367,-88.0117,14.2,5.45,207.3,-9999.0,'1111122,1111122,1111122' 
DISL,ioos:station:DISL:MBLA:1,2013-09-03T04:00:00Z,30.4367,-88.0117,14.2,5.54,205.9,-9999.0,'1111122,1111122,1111122' 
DISL,ioos:station:DISL:MBLA:1,2013-09-03T04:30:00Z,30.4367,-88.0117,14.2,5.51,207.4,-9999.0,'1111122,1111122,1111122' 
DISL,ioos:station:DISL:MBLA:1,2013-09-03T05:00:00Z,30.4367,-88.0117,14.2,6.17,206.5,-9999.0,'1111122,1111122,1111122' 
DISL,ioos:station:DISL:MBLA:1,2013-09-03T05:30:00Z,30.4367,-88.0117,14.2,6.3,207.4,-9999.0,'1111122,1111122,1111122' 
DISL,ioos:station:DISL:MBLA:1,2013-09-03T06:00:00Z,30.4367,-88.0117,14.2,6.57,209.2,-9999.0,'1111122,1111122,1111122' 
DISL,ioos:station:DISL:MBLA:1,2013-09-03T06:30:00Z,30.4367,-88.0117,14.2,6.33,222.7,-9999.0,'1111122,1111122,1111122' 
DISL,ioos:station:DISL:MBLA:1,2013-09-03T07:00:00Z,30.4367,-88.0117,14.2,5.92,226.8,-9999.0,'1111122,1111122,1111122' 
DISL,ioos:station:DISL:MBLA:1,2013-09-03T07:30:00Z,30.4367,-88.0117,14.2,5.33,228.6,-9999.0,'1111122,1111122,1111122' 
DISL,ioos:station:DISL:MBLA:1,2013-09-03T08:00:00Z,30.4367,-88.0117,14.2,5.29,219.7,-9999.0,'1111122,1111122,1111122' 
DISL,ioos:station:DISL:MBLA:1,2013-09-03T08:30:00Z,30.4367,-88.0117,14.2,3.91,247.8,-9999.0,'1111122,1111122,1111122' 
DISL,ioos:station:DISL:MBLA:1,2013-09-03T09:00:00Z,30.4367,-88.0117,14.2,5.75,214.0,-9999.0,'1111122,1111122,1111122' 
DISL,ioos:station:DISL:MBLA:1,2013-09-03T09:30:00Z,30.4367,-88.0117,14.2,4.73,261.5,-9999.0,'1111122,1111122,1111122' 
DISL,ioos:station:DISL:MBLA:1,2013-09-03T10:00:00Z,30.4367,-88.0117,14.2,3.43,221.5,-9999.0,'1111122,1111122,1111122' 
DISL,ioos:station:DISL:MBLA:1,2013-09-03T10:30:00Z,30.4367,-88.0117,14.2,5.18,260.3,-9999.0,'1111122,1111122,1111122' 
DISL,ioos:station:DISL:MBLA:1,2013-09-03T11:00:00Z,30.4367,-88.0117,14.2,4.43,264.4,-9999.0,'1111122,1111122,1111122' 
DISL,ioos:station:DISL:MBLA:1,2013-09-03T11:30:00Z,30.4367,-88.0117,14.2,4.62,267.8,-9999.0,'1111122,1111122,1111122' 
DISL,ioos:station:DISL:MBLA:1,2013-09-03T12:00:00Z,30.4367,-88.0117,14.2,5.99,276.8,-9999.0,'1111122,1111122,1111122' 
DISL,ioos:station:DISL:MBLA:1,2013-09-03T12:30:00Z,30.4367,-88.0117,14.2,4.23,258.5,-9999.0,'1111122,1111122,1111122' 
DISL,ioos:station:DISL:MBLA:1,2013-09-03T13:00:00Z,30.4367,-88.0117,14.2,3.06,264.2,-9999.0,'1111122,1111122,1111122' 
DISL,ioos:station:DISL:MBLA:1,2013-09-03T13:30:00Z,30.4367,-88.0117,14.2,1.91,262.2,-9999.0,'1111122,1111122,1111122' 
DISL,ioos:station:DISL:MBLA:1,2013-09-03T14:00:00Z,30.4367,-88.0117,14.2,1.47,282.6,-9999.0,'1111122,1111122,1111122' 
DISL,ioos:station:DISL:MBLA:1,2013-09-03T14:30:00Z,30.4367,-88.0117,14.2,0.48,207.8,-9999.0,'1111122,1111122,1111122' 
DISL,ioos:station:DISL:MBLA:1,2013-09-03T15:00:00Z,30.4367,-88.0117,14.2,2.04,199.9,-9999.0,'1111122,1111122,1111122' 
DISL,ioos:station:DISL:MBLA:1,2013-09-03T15:30:00Z,30.4367,-88.0117,14.2,0.68,219.0,-9999.0,'1111122,1111122,1111122' 
DISL,ioos:station:DISL:MBLA:1,2013-09-03T16:00:00Z,30.4367,-88.0117,14.2,1.05,188.0,-9999.0,'1111122,1111122,1111122' 
DISL,ioos:station:DISL:MBLA:1,2013-09-03T16:30:00Z,30.4367,-88.0117,14.2,3.09,139.4,-9999.0,'1111122,1111122,1111122' 
DISL,ioos:station:DISL:MBLA:1,2013-09-03T17:00:00Z,30.4367,-88.0117,14.2,4.26,160.5,-9999.0,'1111122,1111122,1111122' 
DISL,ioos:station:DISL:MBLA:1,2013-09-03T17:30:00Z,30.4367,-88.0117,14.2,5.35,181.0,-9999.0,'1111122,1111122,1111122' 
DISL,ioos:station:DISL:MBLA:1,2013-09-03T18:00:00Z,30.4367,-88.0117,14.2,5.16,213.4,-9999.0,'1111122,1111122,1111122' 
DISL,ioos:station:DISL:MBLA:1,2013-09-03T18:30:00Z,30.4367,-88.0117,14.2,4.87,208.1,-9999.0,'1111122,1111122,1111122' 
DISL,ioos:station:DISL:MBLA:1,2013-09-03T19:00:00Z,30.4367,-88.0117,14.2,6.05,201.9,-9999.0,'1111122,1111122,1111122' 
DISL,ioos:station:DISL:MBLA:1,2013-09-03T19:30:00Z,30.4367,-88.0117,14.2,5.82,202.9,-9999.0,'1111122,1111122,1111122' 
DISL,ioos:station:DISL:MBLA:1,2013-09-03T20:00:00Z,30.4367,-88.0117,14.2,6.91,190.6,-9999.0,'1111122,1111122,1111122' 
DISL,ioos:station:DISL:MBLA:1,2013-09-03T20:30:00Z,30.4367,-88.0117,14.2,7.16,197.3,-9999.0,'1111122,1111122,1111122' 
DISL,ioos:station:DISL:MBLA:1,2013-09-03T21:00:00Z,30.4367,-88.0117,14.2,7.0,186.5,-9999.0,'1111122,1111122,1111122' 
DISL,ioos:station:DISL:MBLA:1,2013-09-03T21:30:00Z,30.4367,-88.0117,14.2,6.44,194.5,-9999.0,'1111122,1111122,1111122' 
DISL,ioos:station:DISL:MBLA:1,2013-09-03T22:00:00Z,30.4367,-88.0117,14.2,5.78,184.8,-9999.0,'1111122,1111122,1111122' 
DISL,ioos:station:DISL:MBLA:1,2013-09-03T22:30:00Z,30.4367,-88.0117,14.2,5.89,29.24,-9999.0,'1111122,1111122,1111122' 
DISL,ioos:station:DISL:MBLA:1,2013-09-03T23:00:00Z,30.4367,-88.0117,14.2,15.5,335.4,-9999.0,'1111122,1111122,1111122' 
DISL,ioos:station:DISL:MBLA:1,2013-09-03T23:30:00Z,30.4367,-88.0117,14.2,7.19,286.1,-9999.0,'1111122,1111122,1111122' 
DISL,ioos:station:DISL:MBLA:1,2013-09-04T00:00:00Z,30.4367,-88.0117,14.2,7.09,249.3,-9999.0,'1111122,1111122,1111122' 
DISL,ioos:station:DISL:MBLA:1,2013-09-04T00:30:00Z,30.4367,-88.0117,14.2,6.16,214.7,-9999.0,'1111122,1111122,1111122' 
DISL,ioos:station:DISL:MBLA:1,2013-09-04T01:00:00Z,30.4367,-88.0117,14.2,4.74,163.8,-9999.0,'1111122,1111122,1111122' 
DISL,ioos:station:DISL:MBLA:1,2013-09-04T01:30:00Z,30.4367,-88.0117,14.2,4.82,217.7,-9999.0,'1111122,1111122,1111122' 
DISL,ioos:station:DISL:MBLA:1,2013-09-04T02:00:00Z,30.4367,-88.0117,14.2,2.07,320.3,-9999.0,'1111122,1111122,1111122' 
DISL,ioos:station:DISL:MBLA:1,2013-09-04T02:30:00Z,30.4367,-88.0117,14.2,2.34,125.5,-9999.0,'1111122,1111122,1111122' 
DISL,ioos:station:DISL:MBLA:1,2013-09-04T03:00:00Z,30.4367,-88.0117,14.2,1.66,131.3,-9999.0,'1111122,1111122,1111122' 
DISL,ioos:station:DISL:MBLA:1,2013-09-04T03:30:00Z,30.4367,-88.0117,14.2,1.7,106.0,-9999.0,'1111122,1111122,1111122' 
DISL,ioos:station:DISL:MBLA:1,2013-09-04T04:00:00Z,30.4367,-88.0117,14.2,1.4,39.73,-9999.0,'1111122,1111122,1111122' 
DISL,ioos:station:DISL:MBLA:1,2013-09-04T04:30:00Z,30.4367,-88.0117,14.2,2.29,25.77,-9999.0,'1111122,1111122,1111122' 
DISL,ioos:station:DISL:MBLA:1,2013-09-04T05:00:00Z,30.4367,-88.0117,14.2,3.63,58.39,-9999.0,'1111122,1111122,1111122' 
DISL,ioos:station:DISL:MBLA:1,2013-09-04T05:30:00Z,30.4367,-88.0117,14.2,3.17,59.09,-9999.0,'1111122,1111122,1111122' 
DISL,ioos:station:DISL:MBLA:1,2013-09-04T06:00:00Z,30.4367,-88.0117,14.2,1.73,26.6,-9999.0,'1111122,1111122,1111122' 
DISL,ioos:station:DISL:MBLA:1,2013-09-04T06:30:00Z,30.4367,-88.0117,14.2,1.18,10.46,-9999.0,'1111122,1111122,1111122' 
DISL,ioos:station:DISL:MBLA:1,2013-09-04T07:00:00Z,30.4367,-88.0117,14.2,2.49,358.1,-9999.0,'1111122,1111122,1111122' 
DISL,ioos:station:DISL:MBLA:1,2013-09-04T07:30:00Z,30.4367,-88.0117,14.2,3.44,24.58,-9999.0,'1111122,1111122,1111122' 
DISL,ioos:station:DISL:MBLA:1,2013-09-04T08:00:00Z,30.4367,-88.0117,14.2,3.84,11.48,-9999.0,'1111122,1111122,1111122' 
DISL,ioos:station:DISL:MBLA:1,2013-09-04T08:30:00Z,30.4367,-88.0117,14.2,2.67,40.24,-9999.0,'1111122,1111122,1111122' 
DISL,ioos:station:DISL:MBLA:1,2013-09-04T09:00:00Z,30.4367,-88.0117,14.2,2.14,51.12,-9999.0,'1111122,1111122,1111122' 
DISL,ioos:station:DISL:MBLA:1,2013-09-04T09:30:00Z,30.4367,-88.0117,14.2,3.12,64.39,-9999.0,'1111122,1111122,1111122' 
DISL,ioos:station:DISL:MBLA:1,2013-09-04T10:00:00Z,30.4367,-88.0117,14.2,4.07,89.4,-9999.0,'1111122,1111122,1111122' 
DISL,ioos:station:DISL:MBLA:1,2013-09-04T10:30:00Z,30.4367,-88.0117,14.2,4.27,84.3,-9999.0,'1111122,1111122,1111122' 
DISL,ioos:station:DISL:MBLA:1,2013-09-04T11:00:00Z,30.4367,-88.0117,14.2,3.84,71.69,-9999.0,'1111122,1111122,1111122' 
DISL,ioos:station:DISL:MBLA:1,2013-09-04T11:30:00Z,30.4367,-88.0117,14.2,3.44,85.9,-9999.0,'1111122,1111122,1111122' 
DISL,ioos:station:DISL:MBLA:1,2013-09-04T12:00:00Z,30.4367,-88.0117,14.2,3.83,91.8,-9999.0,'1111122,1111122,1111122' 
DISL,ioos:station:DISL:MBLA:1,2013-09-04T12:30:00Z,30.4367,-88.0117,14.2,4.09,77.53,-9999.0,'1111122,1111122,1111122' 
DISL,ioos:station:DISL:MBLA:1,2013-09-04T13:00:00Z,30.4367,-88.0117,14.2,3.74,75.48,-9999.0,'1111122,1111122,1111122' 
DISL,ioos:station:DISL:MBLA:1,2013-09-04T13:30:00Z,30.4367,-88.0117,14.2,3.38,83.1,-9999.0,'1111122,1111122,1111122' 
DISL,ioos:station:DISL:MBLA:1,2013-09-04T14:00:00Z,30.4367,-88.0117,14.2,2.3,62.18,-9999.0,'1111122,1111122,1111122' 
DISL,ioos:station:DISL:MBLA:1,2013-09-04T14:30:00Z,30.4367,-88.0117,14.2,1.42,87.6,-9999.0,'1111122,1111122,1111122' 
DISL,ioos:station:DISL:MBLA:1,2013-09-04T15:00:00Z,30.4367,-88.0117,14.2,1.54,110.3,-9999.0,'1111122,1111122,1111122' 
DISL,ioos:station:DISL:MBLA:1,2013-09-04T15:30:00Z,30.4367,-88.0117,14.2,1.38,140.7,-9999.0,'1111122,1111122,1111122' 
DISL,ioos:station:DISL:MBLA:1,2013-09-04T16:00:00Z,30.4367,-88.0117,14.2,1.72,155.7,-9999.0,'1111122,1111122,1111122' 
DISL,ioos:station:DISL:MBLA:1,2013-09-04T16:30:00Z,30.4367,-88.0117,14.2,2.05,153.4,-9999.0,'1111122,1111122,1111122' 
DISL,ioos:station:DISL:MBLA:1,2013-09-04T17:00:00Z,30.4367,-88.0117,14.2,2.18,166.9,-9999.0,'1111122,1111122,1111122' 
DISL,ioos:station:DISL:MBLA:1,2013-09-04T17:30:00Z,30.4367,-88.0117,14.2,2.89,183.8,-9999.0,'1111122,1111122,1111122' 
DISL,ioos:station:DISL:MBLA:1,2013-09-04T18:00:00Z,30.4367,-88.0117,14.2,2.36,181.0,-9999.0,'1111122,1111122,1111122' 
DISL,ioos:station:DISL:MBLA:1,2013-09-04T18:30:00Z,30.4367,-88.0117,14.2,2.85,188.5,-9999.0,'1111122,1111122,1111122' 
DISL,ioos:station:DISL:MBLA:1,2013-09-04T19:00:00Z,30.4367,-88.0117,14.2,3.92,172.9,-9999.0,'1111122,1111122,1111122' 
DISL,ioos:station:DISL:MBLA:1,2013-09-04T19:30:00Z,30.4367,-88.0117,14.2,4.03,183.0,-9999.0,'1111122,1111122,1111122' 
DISL,ioos:station:DISL:MBLA:1,2013-09-04T20:00:00Z,30.4367,-88.0117,14.2,5.07,170.4,-9999.0,'1111122,1111122,1111122' 
DISL,ioos:station:DISL:MBLA:1,2013-09-04T20:30:00Z,30.4367,-88.0117,14.2,6.56,175.5,-9999.0,'1111122,1111122,1111122' 
DISL,ioos:station:DISL:MBLA:1,2013-09-04T21:00:00Z,30.4367,-88.0117,14.2,6.82,172.5,-9999.0,'1111122,1111122,1111122' 
DISL,ioos:station:DISL:MBLA:1,2013-09-04T21:30:00Z,30.4367,-88.0117,14.2,5.76,182.3,-9999.0,'1111122,1111122,1111122' 
DISL,ioos:station:DISL:MBLA:1,2013-09-04T22:00:00Z,30.4367,-88.0117,14.2,5.14,186.4,-9999.0,'1111122,1111122,1111122' 
DISL,ioos:station:DISL:MBLA:1,2013-09-04T22:30:00Z,30.4367,-88.0117,14.2,4.81,190.6,-9999.0,'1111122,1111122,1111122' 
DISL,ioos:station:DISL:MBLA:1,2013-09-04T23:00:00Z,30.4367,-88.0117,14.2,5.17,190.7,-9999.0,'1111122,1111122,1111122' 
DISL,ioos:station:DISL:MBLA:1,2013-09-04T23:30:00Z,30.4367,-88.0117,14.2,5.09,188.5,-9999.0,'1111122,1111122,1111122' 
DISL,ioos:station:DISL:MBLA:1,2013-09-05T00:00:00Z,30.4367,-88.0117,14.2,4.53,182.6,-9999.0,'1111122,1111122,1111122' 
DISL,ioos:station:DISL:MBLA:1,2013-09-05T00:30:00Z,30.4367,-88.0117,14.2,3.79,181.9,-9999.0,'1111122,1111122,1111122' 
DISL,ioos:station:DISL:MBLA:1,2013-09-05T01:00:00Z,30.4367,-88.0117,14.2,4.11,201.0,-9999.0,'1111122,1111122,1111122' 
DISL,ioos:station:DISL:MBLA:1,2013-09-05T01:30:00Z,30.4367,-88.0117,14.2,4.17,183.3,-9999.0,'1111122,1111122,1111122' 
DISL,ioos:station:DISL:MBLA:1,2013-09-05T02:00:00Z,30.4367,-88.0117,14.2,3.67,172.9,-9999.0,'1111122,1111122,1111122' 
DISL,ioos:station:DISL:MBLA:1,2013-09-05T02:30:00Z,30.4367,-88.0117,14.2,4.56,175.9,-9999.0,'1111122,1111122,1111122' 
DISL,ioos:station:DISL:MBLA:1,2013-09-05T03:00:00Z,30.4367,-88.0117,14.2,4.88,175.2,-9999.0,'1111122,1111122,1111122' 
DISL,ioos:station:DISL:MBLA:1,2013-09-05T03:30:00Z,30.4367,-88.0117,14.2,4.58,194.3,-9999.0,'1111122,1111122,1111122' 
DISL,ioos:station:DISL:MBLA:1,2013-09-05T04:00:00Z,30.4367,-88.0117,14.2,2.3,164.0,-9999.0,'1111122,1111122,1111122' 